TimeHST,TemperatureF,Dew PointF,Humidity,Sea Level PressureIn,VisibilityMPH,Wind Direction,Wind SpeedMPH,Gust SpeedMPH,PrecipitationIn,Events,Conditions,WindDirDegrees,DateUTC
12:54 AM,73.9,70.0,87,30.07,10.0,NE,9.2,-,N/A,,Clear,40,2013-06-18 10:54:00
1:54 AM,73.0,66.9,81,30.05,10.0,ENE,6.9,-,N/A,,Partly Cloudy,70,2013-06-18 11:54:00
2:54 AM,73.0,66.9,81,30.04,10.0,ENE,11.5,-,N/A,,Clear,60,2013-06-18 12:54:00
3:54 AM,73.9,68.0,82,30.04,10.0,ENE,4.6,-,N/A,,Scattered Clouds,70,2013-06-18 13:54:00
4:54 AM,75.0,70.0,84,30.04,10.0,NE,15.0,-,N/A,,Clear,40,2013-06-18 14:54:00
5:54 AM,75.0,69.1,82,30.05,10.0,NE,13.8,-,N/A,,Scattered Clouds,50,2013-06-18 15:54:00
6:54 AM,77.0,68.0,74,30.06,10.0,ENE,13.8,-,N/A,,Scattered Clouds,60,2013-06-18 16:54:00
7:54 AM,79.0,68.0,69,30.07,10.0,ENE,13.8,23.0,N/A,,Scattered Clouds,70,2013-06-18 17:54:00
8:54 AM,82.9,69.1,63,30.07,10.0,ENE,16.1,34.5,N/A,,Scattered Clouds,60,2013-06-18 18:54:00
9:54 AM,86.0,66.0,51,30.06,10.0,NE,17.3,35.7,0.00,,Clear,50,2013-06-18 19:54:00
10:54 AM,87.1,68.0,53,30.05,10.0,NE,21.9,28.8,N/A,,Scattered Clouds,50,2013-06-18 20:54:00
11:54 AM,87.1,69.1,55,30.04,10.0,ENE,25.3,32.2,0.00,,Scattered Clouds,60,2013-06-18 21:54:00
12:54 PM,89.1,68.0,50,30.03,10.0,NE,25.3,33.4,N/A,,Scattered Clouds,50,2013-06-18 22:54:00
1:54 PM,87.1,71.1,59,30.02,10.0,ENE,24.2,33.4,N/A,,Scattered Clouds,60,2013-06-18 23:54:00
2:54 PM,84.9,70.0,61,30.01,10.0,ENE,20.7,32.2,N/A,,Scattered Clouds,70,2013-06-19 00:54:00
3:54 PM,84.9,69.1,59,30.00,10.0,ENE,20.7,33.4,N/A,,Scattered Clouds,70,2013-06-19 01:54:00
4:54 PM,82.0,68.0,62,29.99,10.0,ENE,21.9,32.2,0.00,,Scattered Clouds,60,2013-06-19 02:54:00
5:54 PM,80.1,68.0,67,30.01,10.0,ENE,23.0,33.4,N/A,,Scattered Clouds,60,2013-06-19 03:54:00
6:54 PM,77.0,69.1,76,30.04,10.0,ENE,19.6,29.9,0.00,,Scattered Clouds,70,2013-06-19 04:54:00
7:54 PM,77.0,69.1,76,30.06,10.0,NE,16.1,21.9,0.00,,Partly Cloudy,50,2013-06-19 05:54:00
8:54 PM,77.0,66.9,71,30.07,10.0,ENE,16.1,24.2,0.00,,Partly Cloudy,70,2013-06-19 06:54:00
9:54 PM,75.9,68.0,76,30.08,10.0,ENE,17.3,23.0,0.00,,Scattered Clouds,60,2013-06-19 07:54:00
10:54 PM,75.0,68.0,79,30.08,10.0,ENE,15.0,18.4,0.00,,Partly Cloudy,60,2013-06-19 08:54:00
11:54 PM,75.0,69.1,82,30.07,10.0,ENE,11.5,-,0.00,,Partly Cloudy,60,2013-06-19 09:54:00